Pagosa Springs, CO

11:20 AM MST on January 17, 2017 (GMT -0700)
Pagosa Springs

Weather History for KPSO - February, 2013

Change the Weather History Date:

Saturday, February 16, 2013

  Actual Average (KE33) Record (KE33)
Temperature  
Mean Temperature 23 °F -  
Max Temperature 42 °F 37 °F 48 °F (1997)
Min Temperature 4 °F 21 °F 6 °F (2001)
Degree Days  
Heating Degree Days 42    
Moisture  
Dew Point 6 °F    
Average Humidity 53    
Maximum Humidity 82    
Minimum Humidity 25    
Precipitation  
Precipitation 0.00 in - - ()
Sea Level Pressure  
Sea Level Pressure 30.30 in    
Wind  
Wind Speed 1 mph (SSW)    
Max Wind Speed 8 mph    
Max Gust Speed -    
Visibility 10 miles    
Events      
Averages and records for this station are not official NWS values.
T = Trace of Precipitation, MM = Missing Value Source: NWS Daily Summary

Daily Weather History Graph

Daily Weather History Graph

Search for Another Location

Airport or City:

Trip Planner

Search our weather history database for the weather conditions in past years. The results will help you decide how hot, cold, wet, or windy it might be!

Date:

Astronomy

Feb. 16, 2013 Rise Set
Actual Time 6:55 AM MST 5:49 PM MST
Civil Twilight 6:29 AM MST 6:16 PM MST
Nautical Twilight 5:58 AM MST 6:46 PM MST
Astronomical Twilight 5:28 AM MST 7:16 PM MST
Moon 10:20 AM MST (2/16) No Moon Set
Length of Visible Light 11h 46m
Length of Day
10h 53m
Waxing Crescent, 40% of the Moon is Illuminated
Feb 16
Waxing Crescent
Feb 17
First Quarter
Feb 25
Full
Mar 4
Last Quarter
Mar 11
New

Hourly Weather History & Observations

Time (MST) Temp. Windchill Dew Point Humidity Pressure Visibility Wind Dir Wind Speed Gust Speed Precip Events Conditions
12:15 AM 13.8 °F - 1.0 °F 57% 30.36 in 10.0 mi Calm Calm - N/A   Clear
12:35 AM 13.3 °F - -0.9 °F 53% 30.37 in 10.0 mi Calm Calm - N/A   Clear
12:55 AM 12.0 °F - -0.9 °F 56% 30.37 in 10.0 mi Calm Calm - N/A   Clear
1:15 AM 10.0 °F - -1.3 °F 60% 30.37 in 10.0 mi Calm Calm - N/A   Clear
1:35 AM 12.7 °F - 1.0 °F 60% 30.37 in 10.0 mi Calm Calm - N/A   Clear
1:55 AM 14.4 °F - 0.3 °F 54% 30.38 in 10.0 mi Calm Calm - N/A   Clear
2:15 AM 9.1 °F - -0.4 °F 65% 30.38 in 10.0 mi Calm Calm - N/A   Clear
2:35 AM 10.4 °F - -0.6 °F 61% 30.38 in 10.0 mi Calm Calm - N/A   Clear
2:55 AM 8.4 °F - -1.3 °F 65% 30.37 in 10.0 mi Calm Calm - N/A   Clear
3:15 AM 9.7 °F - -0.4 °F 64% 30.37 in 10.0 mi Calm Calm - N/A   Clear
3:35 AM 10.8 °F - 0.5 °F 63% 30.37 in 10.0 mi Calm Calm - N/A   Clear
3:55 AM 10.9 °F - -0.8 °F 59% 30.37 in 10.0 mi Calm Calm - N/A   Clear
4:15 AM 7.0 °F - -0.0 °F 73% 30.37 in 10.0 mi Calm Calm - N/A   Clear
4:35 AM 5.5 °F - -2.2 °F 70% 30.37 in 10.0 mi Calm Calm - N/A   Clear
5:15 AM 10.8 °F - 1.2 °F 65% 30.37 in 10.0 mi Calm Calm - N/A   Clear
5:35 AM 6.6 °F - -0.4 °F 73% 30.37 in 10.0 mi Calm Calm - N/A   Clear
5:55 AM 6.8 °F - -0.4 °F 72% 30.38 in 10.0 mi Calm Calm - N/A   Clear
6:15 AM 4.6 °F - -2.6 °F 72% 30.38 in 10.0 mi Calm Calm - N/A   Clear
6:35 AM 7.2 °F - 0.1 °F 73% 30.39 in 10.0 mi Calm Calm - N/A   Clear
6:55 AM 8.1 °F 1.4 °F -0.4 °F 68% 30.39 in 10.0 mi NW 3.5 mph - N/A   Clear
7:15 AM 8.2 °F - -0.2 °F 68% 30.39 in 10.0 mi Calm Calm - N/A   Clear
7:35 AM 7.5 °F - -2.2 °F 65% 30.39 in 10.0 mi Calm Calm - N/A   Clear
7:55 AM 9.7 °F - -0.0 °F 65% 30.39 in 10.0 mi Calm Calm - N/A   Clear
8:15 AM 13.8 °F - 0.1 °F 55% 30.39 in 10.0 mi Calm Calm - N/A   Clear
8:35 AM 15.3 °F - 1.4 °F 54% 30.39 in 10.0 mi Calm Calm - N/A   Clear
11:15 AM 33.8 °F 30.8 °F 4.5 °F 29% 30.36 in 10.0 mi South 3.5 mph - N/A   Clear
11:35 AM 34.7 °F 30.6 °F 4.6 °F 28% 30.36 in 10.0 mi South 4.6 mph - N/A   Clear
11:55 AM 35.4 °F 31.5 °F 3.7 °F 26% 30.35 in 10.0 mi SSW 4.6 mph - N/A   Clear
12:15 PM 36.1 °F - 4.1 °F 26% 30.34 in 10.0 mi Calm Calm - N/A   Clear
12:35 PM 37.6 °F 34.0 °F 5.7 °F 27% 30.32 in 10.0 mi South 4.6 mph - N/A   Clear
12:55 PM 37.9 °F 32.7 °F 7.9 °F 29% 30.32 in 10.0 mi South 6.9 mph - N/A   Clear
1:15 PM 39.0 °F 34.0 °F 8.1 °F 28% 30.31 in 10.0 mi South 6.9 mph - N/A   Clear
1:35 PM 39.6 °F 35.4 °F 7.2 °F 26% 30.30 in 10.0 mi South 5.8 mph - N/A   Clear
1:55 PM 40.5 °F - 6.4 °F 25% 30.29 in 10.0 mi Calm Calm - N/A   Clear
2:15 PM 41.0 °F 37.1 °F 9.1 °F 27% 30.28 in 10.0 mi South 5.8 mph - N/A   Clear
2:35 PM 41.0 °F 36.4 °F 8.6 °F 26% 30.27 in 10.0 mi South 6.9 mph - N/A   Clear
2:55 PM 41.0 °F 35.8 °F 10.0 °F 28% 30.27 in 10.0 mi South 8.1 mph - N/A   Clear
3:15 PM 41.5 °F 38.6 °F 9.9 °F 27% 30.27 in 10.0 mi SSW 4.6 mph - N/A   Clear
3:35 PM 41.4 °F 39.4 °F 10.0 °F 28% 30.26 in 10.0 mi SSW 3.5 mph - N/A   Clear
3:55 PM 41.7 °F 37.3 °F 10.2 °F 28% 30.26 in 10.0 mi South 6.9 mph - N/A   Clear
4:15 PM 42.1 °F - 9.3 °F 26% 30.26 in 10.0 mi Calm Calm - N/A   Clear
4:35 PM 41.7 °F 39.8 °F 11.1 °F 29% 30.25 in 10.0 mi South 3.5 mph - N/A   Clear
4:55 PM 41.4 °F 39.4 °F 10.9 °F 29% 30.25 in 10.0 mi SE 3.5 mph - N/A   Clear
5:15 PM 40.3 °F - 10.4 °F 29% 30.24 in 10.0 mi Calm Calm - N/A   Clear
5:35 PM 38.3 °F - 11.3 °F 33% 30.24 in 10.0 mi Calm Calm - N/A   Clear
5:55 PM 29.7 °F - 14.9 °F 54% 30.24 in 10.0 mi Calm Calm - N/A   Clear
6:15 PM 27.0 °F - 13.1 °F 56% 30.24 in 10.0 mi Calm Calm - N/A   Clear
6:35 PM 25.3 °F - 13.6 °F 61% 30.24 in 10.0 mi Calm Calm - N/A   Clear
6:55 PM 25.3 °F - 13.6 °F 61% 30.24 in 10.0 mi Calm Calm - N/A   Clear
7:15 PM 24.3 °F - 12.9 °F 62% 30.23 in 10.0 mi Calm Calm - N/A   Clear
7:35 PM 26.8 °F - 12.9 °F 56% 30.23 in 10.0 mi Calm Calm - N/A   Clear
7:55 PM 21.9 °F - 11.8 °F 65% 30.23 in 10.0 mi Calm Calm - N/A   Clear
8:15 PM 21.4 °F - 12.0 °F 67% 30.23 in 10.0 mi Calm Calm - N/A   Clear
8:35 PM 23.0 °F - 11.7 °F 62% 30.23 in 10.0 mi Calm Calm - N/A   Clear
8:55 PM 22.3 °F - 12.2 °F 65% 30.23 in 10.0 mi Calm Calm - N/A   Clear
9:15 PM 19.6 °F - 11.5 °F 71% 30.23 in 10.0 mi Calm Calm - N/A   Clear
9:35 PM 19.0 °F - 11.5 °F 72% 30.23 in 10.0 mi Calm Calm - N/A   Clear
9:55 PM 18.7 °F - 11.5 °F 74% 30.23 in 10.0 mi Calm Calm - N/A   Clear
10:15 PM 16.2 °F 10.6 °F 10.2 °F 77% 30.22 in 10.0 mi NNE 3.5 mph - N/A   Clear
10:35 PM 17.8 °F 10.9 °F 9.5 °F 70% 30.22 in 10.0 mi WSW 4.6 mph - N/A   Clear
10:55 PM 19.4 °F - 10.2 °F 68% 30.20 in 10.0 mi Calm Calm - N/A   Clear
11:15 PM 18.7 °F - 12.0 °F 75% 30.20 in 10.0 mi Calm Calm - N/A   Clear
11:35 PM 13.5 °F 7.5 °F 8.8 °F 82% 30.19 in 10.0 mi NNE 3.5 mph - N/A   Clear
11:55 PM 17.8 °F - 10.2 °F 72% 30.19 in 10.0 mi Calm Calm - N/A   Clear